Radioactive Concentration measured by Seawater Radiation Monitor near Fukushima Daiichi Nuclear Power Station
Date,Time,Cs137(Bq/L),Cs134(Bq/L),Total β(Bq/L)
2016/12/02,00:00,0.86,0.058,ND
2016/12/02,00:10,0.74,0.11,ND
2016/12/02,00:20,0.75,0.11,ND
2016/12/02,00:30,0.76,0.11,ND
2016/12/02,00:40,0.78,0.11,ND
2016/12/02,00:50,0.78,0.11,ND
2016/12/02,01:00,0.77,0.11,ND
2016/12/02,01:10,0.78,0.10,ND
2016/12/02,01:20,0.88,0.063,ND
2016/12/02,01:30,0.89,0.059,ND
2016/12/02,01:40,0.86,0.060,ND
2016/12/02,01:50,0.86,0.060,ND
2016/12/02,02:00,0.84,0.071,ND
2016/12/02,02:10,0.83,0.063,ND
2016/12/02,02:20,0.84,0.065,ND
2016/12/02,02:30,0.83,0.067,ND
2016/12/02,02:40,0.84,0.064,ND
2016/12/02,02:50,0.85,0.063,ND
2016/12/02,03:00,0.85,0.063,ND
2016/12/02,03:10,0.82,0.068,ND
2016/12/02,03:20,0.69,0.11,ND
2016/12/02,03:30,0.80,0.076,ND
2016/12/02,03:40,0.80,0.071,ND
2016/12/02,03:50,0.78,0.079,ND
2016/12/02,04:00,0.81,0.069,ND
2016/12/02,04:10,0.83,0.067,ND
2016/12/02,04:20,0.85,0.057,ND
2016/12/02,04:30,0.85,0.055,10
2016/12/02,04:40,0.74,0.093,12
2016/12/02,04:50,0.74,0.091,11
2016/12/02,05:00,0.73,0.083,13
2016/12/02,05:10,0.73,0.081,13
2016/12/02,05:20,0.73,0.081,12
2016/12/02,05:30,0.73,0.085,11
2016/12/02,05:40,0.74,0.092,10
2016/12/02,05:50,0.72,0.096,12
2016/12/02,06:00,0.71,0.098,9.3
2016/12/02,06:10,0.73,0.095,ND
2016/12/02,06:20,0.73,0.094,ND
2016/12/02,06:30,0.73,0.090,ND
2016/12/02,06:40,0.73,0.078,ND
2016/12/02,06:50,0.76,0.075,ND
2016/12/02,07:00,0.86,0.049,ND
2016/12/02,07:10,0.83,0.051,9.0
2016/12/02,07:20,0.84,0.052,10
2016/12/02,07:30,0.84,0.062,ND
2016/12/02,07:40,0.84,0.062,ND
2016/12/02,07:50,0.82,0.063,ND
2016/12/02,08:00,0.85,0.049,ND
2016/12/02,08:10,0.86,0.055,ND
2016/12/02,08:20,0.88,0.056,ND
2016/12/02,08:30,0.87,0.056,ND
2016/12/02,08:40,0.89,0.069,ND
2016/12/02,08:50,0.90,0.067,ND
2016/12/02,09:00,0.89,0.075,ND
2016/12/02,09:10,0.77,0.12,ND
2016/12/02,09:20,0.75,0.12,ND
2016/12/02,09:30,0.76,0.11,ND
2016/12/02,09:40,0.87,0.065,ND
2016/12/02,09:50,0.88,0.064,ND
2016/12/02,10:00,0.89,0.061,ND
2016/12/02,10:10,0.90,0.056,10
2016/12/02,10:20,0.91,0.051,11
2016/12/02,10:30,0.92,0.056,12
2016/12/02,10:40,0.92,0.063,12
2016/12/02,10:50,0.94,0.064,13
2016/12/02,11:00,0.94,0.067,13
2016/12/02,11:10,0.97,0.059,8.9
2016/12/02,11:20,1.0,0.066,ND
2016/12/02,11:30,1.0,0.068,ND
2016/12/02,11:40,1.0,0.063,ND
2016/12/02,11:50,1.0,0.062,ND
2016/12/02,12:00,1.0,0.062,ND
2016/12/02,12:10,1.0,0.075,ND
2016/12/02,12:20,1.0,0.064,10
2016/12/02,12:30,0.87,0.11,ND
2016/12/02,12:40,0.98,0.080,ND
2016/12/02,12:50,0.99,0.086,ND
2016/12/02,13:00,0.97,0.090,ND
2016/12/02,13:10,0.95,0.089,ND
2016/12/02,13:20,0.93,0.089,ND
2016/12/02,13:30,0.96,0.090,ND
2016/12/02,13:40,0.99,0.087,ND
2016/12/02,13:50,0.98,0.081,ND
2016/12/02,14:00,1.0,0.082,ND
2016/12/02,14:10,1.0,0.084,ND
2016/12/02,14:20,1.1,0.090,ND
2016/12/02,14:30,1.0,0.080,ND
2016/12/02,14:40,1.0,0.075,ND
2016/12/02,14:50,0.93,0.11,ND
2016/12/02,15:00,0.88,0.12,ND
2016/12/02,15:10,0.89,0.12,ND
2016/12/02,15:20,0.88,0.12,ND
2016/12/02,15:30,0.88,0.12,ND
2016/12/02,15:40,0.95,0.096,ND
2016/12/02,15:50,0.95,0.10,ND
2016/12/02,16:00,0.98,0.091,ND
2016/12/02,16:10,0.97,0.095,ND
2016/12/02,16:20,0.85,0.14,ND
2016/12/02,16:30,0.88,0.14,ND
2016/12/02,16:40,0.91,0.14,ND
2016/12/02,16:50,0.91,0.14,ND
2016/12/02,17:00,0.92,0.14,ND
2016/12/02,17:10,0.91,0.14,ND
2016/12/02,17:20,0.91,0.14,ND
2016/12/02,17:30,0.99,0.092,ND
2016/12/02,17:40,0.98,0.095,ND
2016/12/02,17:50,0.96,0.10,ND
2016/12/02,18:00,0.96,0.10,ND
2016/12/02,18:10,0.97,0.11,ND
2016/12/02,18:20,0.96,0.10,ND
2016/12/02,18:30,0.96,0.10,ND
2016/12/02,18:40,0.95,0.098,ND
2016/12/02,18:50,1.0,0.085,ND
2016/12/02,19:00,1.0,0.080,ND
2016/12/02,19:10,0.99,0.074,ND
2016/12/02,19:20,1.0,0.065,ND
2016/12/02,19:30,1.1,0.060,ND
2016/12/02,19:40,1.1,0.060,ND
2016/12/02,19:50,1.1,0.061,ND
2016/12/02,20:00,1.1,0.059,ND
2016/12/02,20:10,1.1,0.059,ND
2016/12/02,20:20,1.1,0.072,ND
2016/12/02,20:30,1.1,0.064,ND
2016/12/02,20:40,1.1,0.071,ND
2016/12/02,20:50,1.1,0.082,ND
2016/12/02,21:00,1.1,0.086,ND
2016/12/02,21:10,1.1,0.089,ND
2016/12/02,21:20,1.1,0.084,ND
2016/12/02,21:30,1.1,0.091,ND
2016/12/02,21:40,1.1,0.088,ND
2016/12/02,21:50,0.98,0.12,ND
2016/12/02,22:00,0.96,0.12,ND
2016/12/02,22:10,1.0,0.078,ND
2016/12/02,22:20,1.0,0.074,ND
2016/12/02,22:30,0.96,0.079,ND
2016/12/02,22:40,0.96,0.077,ND
2016/12/02,22:50,0.97,0.084,ND
2016/12/02,23:00,0.99,0.090,ND
2016/12/02,23:10,0.99,0.095,ND
2016/12/02,23:20,1.0,0.095,ND
2016/12/02,23:30,1.0,0.087,ND
2016/12/02,23:40,1.0,0.091,ND
2016/12/02,23:50,1.0,0.085,ND
